Location: Sungai Dangang
(2.7500°N, 113.8333°E)
Time: 19:54:04
(UTC+00:00)

Ariane H10-3 - Pass Details

Date: 16 May 2021
Orbit: 446 x 36479 km, 4.6° (Epoch: 19 June)

Event Time Altitude Azimuth Distance (km) Brightness Sun altitude
Exits shadow 20:51:07 38° 274° (W) 1,137 2.4 -20.2°
Maximum altitude 20:52:49 83° 359° (N) 978 2.5 -19.8°
Drops below altitude 10° 21:08:09 10° 86° (E) 7,485 8.2 -16.2°
Sets 21:24:56 0° 87° (E) 13,407 9.9 -12.3°
